Location: Waco, TX
(31.5480°N, 97.1670°W)
Time: 09:08:45
(UTC-05:00)

ISS - Pass Details

Date: 12 October 2019
Orbit: 411 x 421 km, 51.6° (Epoch: 18 October)

Event Time Altitude Azimuth Distance (km) Brightness Sun altitude
Rises 10:45:06 0° 210° (SSW) 2,346 0.2 37.0°
Reaches altitude 10° 10:47:15 10° 203° (SSW) 1,485 -0.7 37.4°
Maximum altitude 10:50:25 42° 131° (SE) 604 0.4 37.9°
Drops below altitude 10° 10:53:36 10° 59° (ENE) 1,487 -0.7 38.4°
Sets 10:55:45 0° 52° (NE) 2,351 0.1 38.7°
